Weather Roundup
Issued by NWS Springfield, MO

Home | Current Version | Previous Version | Text Only | Print | Product List | Glossary On
Versions: 1 2 3 4 5 6 7 8 9 10 11 12 13 14 15 16 17 18 19 20 21 22 23 24 25 26 27 28 29 30 31 32 33 34 35 36 37 38 39 40 41 42 43 44 45 46 47 48 49 50
000
NZUS99 KSGF 281407
HRRSGF

HOURLY WEATHER
NATIONAL WEATHER SERVICE SPRINGFIELD MO
800 AM CST SUN DEC 28 2014

......SGF CWA......

CITY           SKY/WX    TMP DP  RH WIND       PRES   REMARKS
SPRINGFIELD    CLOUDY    26  22  84 CALM      30.23R
JOPLIN         CLOUDY    22  20  92 CALM      30.26R
WEST PLAINS    CLOUDY    28  23  81 NW5       30.21S WCI  23
ROLLA          CLOUDY    27  22  81 MISG      30.21R
OSAGE BEACH    CLOUDY    25  21  86 CALM      30.24S
BRANSON        CLOUDY    27  25  93 CALM      30.23S

......SURROUNDING SGF CWA......

CITY           SKY/WX    TMP DP  RH WIND       PRES   REMARKS
CHANUTE        PTCLDY    20  17  88 NW3       30.25R
PARSONS        MOCLDY    18  16  92 CALM      30.28R
COFFEYVILLE    MOCLDY    21  18  88 S5        30.28R WCI  15
EMPORIA        CLEAR     15  12  88 S6        30.22R WCI   6
GROVE OK       CLOUDY    27  27 100 CALM      30.29R
ROGERS AR      CLOUDY    25  24  96 CALM      30.24R
SILOAM SPRINGS CLOUDY    27  19  74 CALM      30.26R
HARRISON AR    CLOUDY    28  23  81 NW5       30.22R WCI  23
NEAR YELLVILLE CLOUDY    30  25  80 CALM      30.24R

......KANSAS AND MISSOURI......

CITY           SKY/WX    TMP DP  RH WIND       PRES   REMARKS
KANSAS CTY INT PTCLDY    17  15  92 S7        30.21R WCI   8
DOWNTOWN KC    CLEAR     21  17  84 SW3       30.24R
COLUMBIA       CLOUDY    26  22  84 CALM      30.24R
SEDALIA        FAIR      23  20  88 SW3       30.25R
ST JOSEPH      CLEAR     15  12  88 S7        30.22R WCI   5
ST LOUIS       CLOUDY    32  24  72 W3        30.25R
SPIRIT OF STL  CLOUDY    31  24  75 VRB3      30.25R
KIRKSVILLE     PTCLDY    18  17  96 SW5       30.22R WCI  11
WICHITA        PTCLDY    17  12  80 CALM      30.21F
TOPEKA         CLEAR     18  15  88 CALM      30.24R
OLATHE         PTCLDY    18  17  96 S3        30.22R

......TENNESSEE......

CITY           SKY/WX    TMP DP  RH WIND       PRES   REMARKS
MEMPHIS        LGT RAIN  40  37  89 N9        30.19S WCI  34
NASHVILLE      LGT RAIN  41  39  93 NW6       30.16R

......ARKANSAS.......

CITY           SKY/WX    TMP DP  RH WIND       PRES   REMARKS
FAYETTEVILLE   CLOUDY    27  26  96 CALM      30.23F
FT SMITH       CLOUDY    32  27  81 W6        30.28R WCI  26
LITTLE ROCK    CLOUDY    38  30  73 NW9       30.25R WCI  31

......OKLAHOMA.......

CITY           SKY/WX    TMP DP  RH WIND       PRES   REMARKS
TULSA          CLOUDY    25  19  78 CALM      30.28R
PONCA CITY     CLEAR     16  12  84 CALM      30.26R
MCALESTER      CLOUDY    30  24  78 NW3       30.27S
OKLAHOMA CITY  PTCLDY    21  16  81 CALM      30.24R

......IOWA............

CITY           SKY/WX    TMP DP  RH WIND       PRES   REMARKS
DES MOINES     PTCLDY    16  11  80 S7        30.15F WCI   6
QUAD CITIES    PTCLDY    18  14  84 SW5       30.21R WCI  11

......ILLINOIS........

CITY           SKY/WX    TMP DP  RH WIND       PRES   REMARKS
QUINCY         MOCLDY    25  20  81 SW3       30.22R
CHICAGO        MOCLDY    22  18  85 W7        30.16R WCI  13



USA.gov is the U.S. government's official web portal to all federal, state and local government web resources and services.